Location: Unspecified
(64.9000°N, 0.0000°E)
Time: 04:20:45
(UTC+00:00)

Transit 2A Rocket - Pass Details

Date: 27 June 2019
Orbit: 588 x 915 km, 66.7° (Epoch: 23 July)

Event Time Altitude Azimuth Distance (km) Brightness Sun altitude
Rises 17:15:49 0° 305° (NW) 3,390 9.2 26.0°
Reaches altitude 10° 17:18:37 10° 296° (WNW) 2,400 8.8 25.7°
Maximum altitude 17:23:19 30° 237° (WSW) 1,353 7.5 25.2°
Drops below altitude 10° 17:27:39 10° 178° (S) 2,199 7.4 24.7°
Sets 17:30:06 0° 167° (SSE) 3,060 8.0 24.5°
